Вернуться в каталог

IUS R/B(2)

АктивенGTO
NORAD 25672·ROCKET BODY·🇺🇸 United States

Запущен Apr 9, 1999 с Cape Canaveral Space Force Station

Loading…

TLE

УстаревшееSource: Space-Track

Эпоха: Sep 14, 2026, 03:26 UTC

1 25672U 99017D   26257.14343052  .00000673  00000-0  76953-3 0  9991
2 25672  28.3890 100.8534 7097402   4.3033 359.6034  2.46425318 63393

Отслеживайте IUS R/B(2) в реальном времени с AllMySat

Download on the App Store